SL-12 DEB, 41700

Orbit data source: Space-Track

SL-12 DEB, 41700 is space debris in HEO originally from a launch on Mon, 01 Mar 2010 UTC launched from the Tyuratam Missile And Space Complex (TTMTR). Debris objects in space refer to the collection of defunct objects orbiting the Earth. Examples of debris include non-operational satellites, rocket bodies, and fragments generated from explosions, collisions, or faulty payload assembly.

Loading next visibility...
Identifier
41700, 2010-007S
Orbit
HEO
Country
Flag of CISCIS
Related business
Manufacturer
RKKE
Mission
Spacecraft
Bus & Motor
Unknown
Mass
Unknown
Launch date (UTC)
2010-03-01 (17 years ago)
Launch vehicle
Unknown
Launch site
Tyuratam Missile And Space Complex (TTMTR)
Object type
Payload
Rocket body
Debris
Shape & HBR
Unknown shape, 0.1 m
Radar Cross Section
Medium (>0.1 m² and <1 m²)

Expand to show TLE details & history
Last TLE update: 1 year ago

TLE from 1 year ago
0 SL-12 DEB
1 41700U 10007S   25123.56113342  .00000170  00000-0  16834-2 0  9990
2 41700  64.5184  64.8316 5701930 336.9488   5.2740  4.13348308161512
Epoch: 2025-05-03T13:28Z
TLE epoch observation values (Epoch: 2025-05-03T13:28:01.927Z)
Latitude
0.00024°
Longitude
1.11383°
Altitude
880.569 km
Speed
9.249 km/s
True Right ascension
04h 19m 17s
True Declination
0° 00' 01"
Sunlit
Object was in daylight at epoch
Visualization orbit readout
Latitude
Unknown
Longitude
Unknown
Altitude
Unknown
Speed
Unknown
Apparent Right ascension
Unknown
Apparent Declination
Unknown
Sunlit
N/A
Visualization observer readout
Local Sidereal Time
21:01:53
Azimuth
Unknown
Elevation
Unknown
Doppler factor
Unknown
Orbital elements
Apogee altitude
19,372.176 km
Perigee altitude
670.465 km
Semi-major axis
16,399.457 km
Eccentricity
0.57019
Inclination
64.5184°
RAAN
64.8316°
Arg. of periapsis
336.9488°
True anomaly
22.99669°
Mean anomaly
5.274°
Eccentric anomaly
12.15009°
Mean motion
1.03347 °/min
Orbital period
348.34 mins
BSTAR
0.0016834
Loading maneuver chart data...
Computing Atmospheric mass density...
Loading historical data...
Loading historical data...
Loading historical data...
Loading historical data...
Loading historical data...
Loading historical data...
Loading historical data...

Documentation

Showing up to 5 results
|